#timestamp,LO_Frequency,Hit 
1505390415.7,286046994.9,N
1505390435.5,286046999.1,N
1505390455.4,286046998.2,N
1505390475.2,286046997.6,N
1505390495.0,286046997.9,N
1505390495.9,286046997.9,N
1505390515.8,286046994.0,N
1505390535.6,286046995.6,N
1505390555.4,286046993.4,N
1505390575.3,286046992.3,P
1505390595.1,286046999.7,N
1505390596.0,286046999.7,N
1505390615.8,286047000.4,N
1505390635.7,286046999.7,N
1505390655.5,286047002.7,N
1505390675.3,286047002.2,N
1505390695.2,286047001.3,N
1505390715.9,286047003.9,N
1505390735.7,286047003.0,N
1505390755.5,286047005.6,N
1505390775.4,286047003.6,N
1505390795.2,286047007.2,N
1505390815.0,286047007.6,N
1505390815.9,286047007.6,N
1505390835.8,286047003.1,N
1505390855.6,286047006.4,N
1505390875.4,286047008.6,N
1505390895.3,286047007.4,N
1505390915.1,286047001.3,N
1505390916.0,286047001.3,N
1505390935.8,286047003.2,N
1505390955.7,286047003.9,N
1505390975.5,286047004.3,N
1505390995.3,286047001.8,N
1505391015.2,286047000.2,N
1505391035.9,286046999.8,N
1505391055.7,286047002.3,N
1505391075.6,286046998.8,N
1505391095.4,286046999.3,N
1505391115.2,286046997.8,N
1505391135.0,286046996.4,N
1505391136.0,286046996.4,N
1505391155.8,286046996.5,N
1505391175.6,286046997.9,N
1505391195.4,286046994.7,N
1505391215.3,286046994.1,N
1505391235.1,286046994.0,N
1505391255.8,286046997.9,N
1505391275.7,286047000.0,N
1505391295.5,286046996.5,N
1505391315.3,286046999.4,N
1505391335.2,286047002.2,N
1505391355.9,286047003.3,N
1505391375.7,286047000.3,N
1505391395.6,286047000.4,N
1505391415.4,286047000.2,N
1505391435.2,286047000.0,N
1505391455.1,286046998.3,N
1505391456.0,286046998.3,N
1505391475.8,286046997.8,N
1505391495.6,286047001.1,N
1505391515.5,286047001.9,N
1505391535.3,286046998.2,N
1505391555.1,286047002.3,N
1505391575.8,286047002.0,N
1505391595.7,286047002.7,N
1505391615.5,286046999.6,N
1505391635.3,286047004.4,N
1505391655.2,286047002.9,N
1505391675.9,286047003.8,N
1505391695.7,286047001.9,N
1505391715.6,286047000.9,N
1505391735.4,286046999.8,N
1505391755.2,286046993.4,N
1505391775.1,286046997.8,N
1505391776.0,286046997.8,N
1505391795.8,286046996.5,N
1505391815.6,286046998.7,N
1505391835.5,286046995.5,N
1505391855.3,286046997.0,N
1505391875.1,286046997.5,N
1505391895.9,286047000.4,N
1505391915.7,286047002.3,N
1505391935.5,286047000.5,N
1505391955.3,286046999.4,N
1505391975.2,286046997.3,N
1505391995.0,286046998.7,N
1505391995.9,286046998.7,N
1505392015.7,286047000.9,N
1505392035.6,286046999.6,N
1505392055.4,286046999.9,N
1505392075.2,286047002.3,N
1505392095.1,286047001.3,N
1505392096.0,286047001.3,N
1505392115.8,286047003.3,N
1505392135.6,286047005.9,N
1505392155.5,286047004.1,N
1505392175.3,286047002.1,N
1505392195.1,286046999.9,N
1505392215.9,286046999.0,N
1505392235.7,286046994.9,N
1505392255.5,286046992.7,N
1505392275.4,286046996.4,N
1505392295.2,286046999.2,N
1505392315.0,286047000.3,N
1505392315.9,286047000.3,N
1505392335.7,286046995.0,N
1505392355.6,286046994.7,N
1505392375.4,286046997.6,N
1505392395.2,286047001.7,N
1505392415.1,286047002.5,N
1505392416.0,286047002.5,N
1505392435.8,286047002.1,N
1505392455.6,286047000.9,N
1505392475.5,286047001.8,N
1505392495.3,286047001.3,N
1505392515.1,286047003.3,N
1505392535.9,286047004.1,N
1505392555.7,286047002.9,N
1505392575.5,286047002.2,N
1505392595.4,286047002.5,N
1505392615.2,286046999.1,N
1505392635.0,286046997.7,N
1505392635.9,286046997.7,N
1505392655.8,286046996.8,N
1505392675.6,286047000.7,N
1505392695.4,286047001.6,N
1505392715.3,286047001.8,N
1505392735.1,286047004.3,N
1505392736.0,286047004.3,N
1505392755.8,286047004.4,N
1505392775.7,286047001.6,N
1505392795.5,286047003.8,N
1505392815.3,286047005.6,N
1505392835.1,286047003.3,N
1505392855.9,286047002.9,N
1505392875.7,286047004.3,N
1505392895.5,286047005.3,N
1505392915.4,286047008.7,P
1505392935.2,286047006.0,N
1505392955.0,286046999.8,N
1505392956.0,286046999.8,N
1505392975.8,286047000.2,N
1505392995.6,286047000.3,N
1505393015.4,286047002.1,N
1505393035.3,286047003.2,N
1505393055.1,286047003.9,N
1505393075.8,286047005.8,N
1505393095.7,286047006.5,N
1505393115.5,286047001.3,N
1505393135.3,286047010.7,P
1505393155.2,286047002.3,N
1505393175.0,286047001.2,N
1505393175.9,286047001.2,N
1505393195.7,286046996.8,N
1505393215.6,286046994.1,N
1505393235.4,286046995.5,N
1505393255.2,286046995.0,N
1505393275.1,286046993.7,N
1505393276.0,286046993.7,N
1505393295.8,286046991.7,N
1505393315.6,286046991.8,N
1505393335.5,286046993.2,N
1505393355.3,286046993.4,N
1505393375.1,286046993.9,N
1505393395.9,286046993.0,N
1505393415.7,286046994.7,N
1505393435.5,286046993.6,N
1505393455.3,286046993.1,N
1505393475.2,286046991.7,N
1505393495.0,286046997.8,N
1505393495.9,286046997.8,N
1505393515.7,286046996.2,N
1505393535.6,286046994.4,N
1505393555.4,286046995.5,N
1505393575.2,286046997.3,N
1505393595.1,286046999.3,N
1505393596.0,286046999.3,N
1505393615.8,286046998.2,N
1505393635.6,286046994.2,N
1505393655.5,286046995.5,N
1505393675.3,286046991.7,N
1505393695.1,286046993.5,N
1505393715.9,286046993.7,N
1505393735.7,286046995.7,N
1505393755.5,286046995.8,N
1505393775.4,286046997.9,N
1505393795.2,286046997.4,N
1505393815.0,286046998.7,N
1505393815.9,286046998.7,N
1505393835.8,286046995.6,N
1505393855.6,286046992.4,P
1505393875.4,286046997.4,N
1505393895.3,286047001.0,N
1505393915.1,286047002.1,N
1505393916.0,286047002.1,N
1505393935.8,286047002.1,N
1505393955.7,286047003.2,N
1505393975.5,286047005.8,N
1505393995.3,286047005.9,N
